Location: Cisewo
(53.3833°N, 14.9000°E)
Time: 11:35:35
(UTC+00:00)

Resurs 01 Rocket - Pass Details

Date: 18 April 2021
Orbit: 634 x 644 km, 97.9° (Epoch: 14 May)

Event Time Altitude Azimuth Distance (km) Brightness Sun altitude
Exits shadow 20:50:19 - 219° (SW) 2,508 4.5 -19.8°
Reaches altitude 10° 20:51:57 10° 233° (SW) 2,043 4.2 -20.0°
Maximum altitude 20:54:46 16° 272° (W) 1,667 4.2 -20.2°
Drops below altitude 10° 20:57:35 10° 311° (NW) 2,054 5.3 -20.4°
Sets 21:00:35 0° 333° (NNW) 2,970 6.6 -20.7°
